�������l�o���
Date,Time,MP-1(��Sv/h),MP-2(��Sv/h),MP-3(��Sv/h),MP-4(��Sv/h),MP-5(��Sv/h),MP-6(��Sv/h),MP-7(��Sv/h),MP-8(��Sv/h),����,����(m/s),���J
2016/10/26,00:00,1.128,1.990,1.368,2.217,1.558,0.616,1.089,1.002,��,9.1,��
2016/10/26,00:10,1.124,1.992,1.370,2.213,1.557,0.617,1.086,1.000,��,8.8,�L
2016/10/26,00:20,1.127,1.993,1.369,2.217,1.557,0.617,1.085,1.000,��,8.3,��
2016/10/26,00:30,1.127,1.989,1.368,2.217,1.560,0.615,1.085,1.001,��,6.9,��
2016/10/26,00:40,1.128,1.987,1.369,2.217,1.557,0.618,1.086,1.001,��,7.2,��
2016/10/26,00:50,1.128,1.991,1.371,2.216,1.559,0.617,1.087,1.001,��,9.3,��
2016/10/26,01:00,1.129,1.992,1.369,2.217,1.558,0.617,1.087,1.001,��,10.0,��
2016/10/26,01:10,1.128,1.989,1.369,2.215,1.561,0.617,1.087,1.001,��,8.5,��
2016/10/26,01:20,1.129,1.988,1.369,2.214,1.559,0.617,1.086,0.999,��,8.2,��
2016/10/26,01:30,1.131,1.988,1.368,2.216,1.558,0.618,1.087,0.999,��,8.3,��
2016/10/26,01:40,1.130,1.992,1.371,2.216,1.558,0.616,1.086,1.000,��,8.6,��
2016/10/26,01:50,1.127,1.991,1.369,2.218,1.558,0.617,1.086,1.002,��,9.3,��
2016/10/26,02:00,1.130,1.991,1.369,2.216,1.561,0.617,1.089,1.000,��쐼,8.2,��
2016/10/26,02:10,1.126,1.988,1.366,2.215,1.558,0.617,1.088,1.001,��쐼,8.2,��
2016/10/26,02:20,1.127,1.990,1.369,2.217,1.558,0.617,1.085,0.999,��쐼,8.0,��
2016/10/26,02:30,1.127,1.987,1.368,2.216,1.557,0.616,1.086,0.999,��,7.7,��
2016/10/26,02:40,1.127,1.986,1.367,2.219,1.558,0.615,1.085,0.998,��,8.2,��
2016/10/26,02:50,1.126,1.991,1.367,2.215,1.558,0.617,1.085,1.001,��,8.3,��
2016/10/26,03:00,1.126,1.990,1.367,2.216,1.556,0.618,1.085,1.000,��,7.7,��
2016/10/26,03:10,1.130,1.988,1.366,2.215,1.556,0.618,1.085,0.999,��,7.7,��
2016/10/26,03:20,1.130,1.987,1.367,2.215,1.560,0.615,1.089,1.001,��,7.7,��
2016/10/26,03:30,1.131,1.988,1.368,2.217,1.560,0.616,1.089,1.000,��,8.5,��
2016/10/26,03:40,1.132,1.990,1.370,2.215,1.559,0.616,1.088,1.000,��,6.7,��
2016/10/26,03:50,1.129,1.989,1.367,2.216,1.562,0.617,1.088,1.001,��쐼,7.7,��
2016/10/26,04:00,1.127,1.988,1.368,2.212,1.560,0.616,1.089,1.000,��쐼,6.9,��
2016/10/26,04:10,1.130,1.990,1.366,2.216,1.559,0.615,1.086,1.000,��쐼,6.9,��
2016/10/26,04:20,1.130,1.988,1.369,2.217,1.559,0.616,1.086,1.000,��,6.0,��
2016/10/26,04:30,1.130,1.990,1.367,2.216,1.564,0.614,1.089,1.001,��쐼,5.8,��
2016/10/26,04:40,1.131,1.989,1.367,2.214,1.561,0.616,1.089,0.999,��쐼,5.8,��
2016/10/26,04:50,1.130,1.986,1.367,2.214,1.560,0.616,1.088,1.001,��쐼,5.8,��
2016/10/26,05:00,1.128,1.987,1.365,2.217,1.560,0.616,1.091,1.002,��쐼,7.1,��
2016/10/26,05:10,1.129,1.989,1.368,2.216,1.560,0.617,1.088,1.000,��쐼,5.8,��
2016/10/26,05:20,1.130,1.988,1.368,2.213,1.559,0.619,1.089,1.001,�쐼,3.9,��
2016/10/26,05:30,1.129,1.985,1.366,2.215,1.560,0.615,1.090,1.001,��쐼,3.5,��
2016/10/26,05:40,1.131,1.984,1.365,2.211,1.562,0.617,1.090,1.002,�쐼,3.5,��
2016/10/26,05:50,1.131,1.985,1.367,2.212,1.562,0.617,1.089,0.999,���쐼,3.8,��
2016/10/26,06:00,1.130,1.985,1.366,2.212,1.558,0.617,1.088,1.001,�쐼,3.4,��
2016/10/26,06:10,1.130,1.990,1.367,2.215,1.558,0.616,1.091,1.000,���쐼,2.9,��
2016/10/26,06:20,1.130,1.987,1.366,2.217,1.559,0.614,1.088,1.001,���쐼,2.8,��
2016/10/26,06:30,1.129,1.984,1.367,2.218,1.561,0.616,1.087,1.000,���쐼,2.8,��
2016/10/26,06:40,1.128,1.991,1.365,2.213,1.559,0.616,1.088,1.000,���쐼,3.8,��
2016/10/26,06:50,1.129,1.987,1.367,2.211,1.558,0.614,1.091,1.000,���쐼,4.2,��
2016/10/26,07:00,1.129,1.985,1.366,2.213,1.558,0.615,1.088,1.000,��,3.8,��
2016/10/26,07:10,1.129,1.987,1.365,2.215,1.559,0.615,1.088,0.999,���쐼,3.1,��
2016/10/26,07:20,1.130,1.986,1.365,2.214,1.560,0.615,1.088,1.000,�쐼,3.1,��
2016/10/26,07:30,1.129,1.981,1.361,2.216,1.561,0.614,1.089,1.002,���쐼,1.8,��
2016/10/26,07:40,1.130,1.988,1.364,2.217,1.556,0.613,1.088,1.001,���쐼,2.9,��
2016/10/26,07:50,1.129,1.988,1.363,2.216,1.560,0.617,1.090,1.001,��,2.9,��
2016/10/26,08:00,1.138,1.984,1.360,2.220,1.561,0.615,1.088,1.001,���k��,0.5,��
2016/10/26,08:10,1.159,1.981,1.359,2.216,1.560,0.617,1.091,1.001,��,2.3,��
2016/10/26,08:20,1.161,1.985,1.356,2.217,1.560,0.619,1.089,1.002,��,2.8,��
2016/10/26,08:30,1.160,1.987,1.353,2.216,1.560,0.617,1.089,1.001,��,4.4,��
2016/10/26,08:40,1.159,1.988,1.355,2.217,1.563,0.617,1.089,1.002,���k��,5.2,��
2016/10/26,08:50,1.159,1.990,1.359,2.223,1.559,0.617,1.086,1.002,��,5.2,��
2016/10/26,09:00,1.161,1.984,1.359,2.221,1.561,0.617,1.088,1.003,���쐼,2.8,��
2016/10/26,09:10,1.160,1.987,1.358,2.221,1.560,0.617,1.091,1.001,��,3.8,��
2016/10/26,09:20,1.160,1.990,1.358,2.222,1.559,0.616,1.088,1.003,��,5.2,��
2016/10/26,09:30,1.161,1.990,1.359,2.219,1.561,0.615,1.090,1.002,��,3.6,��
2016/10/26,09:40,1.162,1.987,1.358,2.225,1.560,0.617,1.090,1.001,��,5.2,��
2016/10/26,09:50,1.159,1.986,1.359,2.224,1.562,0.617,1.092,1.000,��,5.2,��
2016/10/26,10:00,1.162,1.983,1.361,2.225,1.562,0.616,1.090,1.000,��,5.5,��
2016/10/26,10:10,1.158,1.984,1.362,2.224,1.564,0.618,1.090,0.999,��,6.3,��
2016/10/26,10:20,1.163,1.985,1.361,2.225,1.560,0.616,1.091,0.998,��,5.8,��
2016/10/26,10:30,1.159,1.983,1.362,2.222,1.565,0.619,1.090,1.000,��,7.8,��
2016/10/26,10:40,1.163,1.980,1.361,2.222,1.566,0.617,1.093,1.000,��,8.8,��
2016/10/26,10:50,1.162,1.984,1.363,2.224,1.566,0.618,1.092,0.999,��,8.3,��
2016/10/26,11:00,1.163,1.986,1.362,2.225,1.563,0.619,1.093,1.000,��,7.2,��
2016/10/26,11:10,1.159,1.986,1.364,2.224,1.566,0.618,1.093,1.000,��,6.6,��
2016/10/26,11:20,1.161,1.986,1.364,2.224,1.564,0.620,1.092,0.999,���k��,6.4,��
2016/10/26,11:30,1.155,1.994,1.363,2.227,1.564,0.617,1.092,0.999,���k��,9.4,��
2016/10/26,11:40,1.163,1.992,1.365,2.227,1.568,0.619,1.092,0.999,���k��,9.7,��
2016/10/26,11:50,1.166,1.993,1.364,2.225,1.567,0.618,1.090,1.001,���k��,9.1,��
2016/10/26,12:00,1.165,1.995,1.366,2.226,1.568,0.620,1.093,1.001,���k��,9.9,��
2016/10/26,12:10,1.166,1.992,1.364,2.227,1.568,0.619,1.092,0.998,���k��,7.1,��
2016/10/26,12:20,1.167,1.996,1.354,2.229,1.567,0.620,1.090,0.998,���k��,7.4,��
2016/10/26,12:30,1.169,1.995,1.355,2.229,1.569,0.620,1.091,0.996,���k��,4.2,��
2016/10/26,12:40,1.162,1.995,1.358,2.230,1.567,0.622,1.091,0.999,��,2.6,��
2016/10/26,12:50,1.164,1.986,1.354,2.230,1.568,0.620,1.091,0.999,��쓌,3.5,��
2016/10/26,13:00,1.163,1.990,1.349,2.228,1.570,0.619,1.090,0.999,�쓌,3.2,��
2016/10/26,13:10,1.164,1.993,1.351,2.228,1.567,0.619,1.091,1.000,�쓌,3.3,��
2016/10/26,13:20,1.164,1.994,1.351,2.226,1.566,0.619,1.090,0.998,�쓌,2.0,��
2016/10/26,13:30,1.164,1.993,1.351,2.227,1.565,0.620,1.092,0.998,���k��,2.2,��
2016/10/26,13:40,1.163,1.992,1.351,2.231,1.569,0.620,1.092,1.000,���k��,2.3,��
2016/10/26,13:50,1.163,1.986,1.351,2.229,1.569,0.617,1.091,0.999,�쓌,2.3,��
2016/10/26,14:00,1.165,1.991,1.344,2.228,1.564,0.618,1.088,1.000,���쓌,2.3,��
2016/10/26,14:10,1.160,1.992,1.349,2.229,1.569,0.619,1.089,1.000,���쓌,2.8,��
2016/10/26,14:20,1.162,1.990,1.351,2.227,1.567,0.618,1.090,0.997,�쓌,1.7,��
2016/10/26,14:30,1.162,1.992,1.348,2.231,1.566,0.619,1.090,0.999,��,2.2,��
2016/10/26,14:40,1.162,1.992,1.350,2.225,1.565,0.621,1.093,1.001,��쓌,1.3,��
2016/10/26,14:50,1.162,1.987,1.350,2.227,1.567,0.619,1.091,0.999,�k,1.7,��
2016/10/26,15:00,1.162,1.988,1.346,2.231,1.566,0.619,1.091,0.999,�k�k��,1.6,��
2016/10/26,15:10,1.161,1.994,1.346,2.227,1.566,0.617,1.089,0.998,�k�k��,2.0,��
2016/10/26,15:20,1.162,1.988,1.345,2.224,1.569,0.618,1.090,0.998,�k��,2.1,��
2016/10/26,15:30,1.161,1.995,1.346,2.227,1.567,0.617,1.090,0.999,�k��,2.9,��
2016/10/26,15:40,1.162,1.993,1.346,2.229,1.566,0.618,1.092,0.998,���k��,1.2,��
2016/10/26,15:50,1.163,1.994,1.346,2.227,1.565,0.615,1.092,0.998,���k��,3.8,��
2016/10/26,16:00,1.165,1.993,1.346,2.225,1.570,0.619,1.092,1.000,��,3.8,��
2016/10/26,16:10,1.165,1.993,1.346,2.228,1.564,0.620,1.092,0.998,��,2.5,��
2016/10/26,16:20,1.162,1.991,1.345,2.229,1.566,0.619,1.092,1.000,��,4.6,��
2016/10/26,16:30,1.163,1.989,1.344,2.226,1.567,0.616,1.090,1.000,���k��,3.6,��
2016/10/26,16:40,1.162,1.993,1.344,2.230,1.565,0.620,1.090,1.000,�k��,2.3,��
2016/10/26,16:50,1.162,1.997,1.342,2.223,1.564,0.618,1.092,1.000,�k�k��,1.3,��
2016/10/26,17:00,1.164,1.995,1.344,2.228,1.564,0.619,1.090,0.999,�k�k��,0.9,��
2016/10/26,17:10,1.162,1.999,1.344,2.225,1.566,0.618,1.091,1.002,�k��,0.9,��
2016/10/26,17:20,1.161,1.997,1.345,2.224,1.568,0.619,1.092,1.001,�k�k��,1.0,��
2016/10/26,17:30,1.161,1.995,1.346,2.219,1.569,0.619,1.089,1.000,�k,1.2,��
2016/10/26,17:40,1.161,1.995,1.345,2.221,1.567,0.619,1.091,1.001,�k,1.7,��
2016/10/26,17:50,1.161,1.995,1.346,2.222,1.566,0.618,1.092,1.000,�k�k��,2.1,��
2016/10/26,18:00,1.163,1.995,1.346,2.221,1.568,0.617,1.091,1.000,�k�k��,4.1,��
2016/10/26,18:10,1.163,1.994,1.346,2.225,1.566,0.617,1.089,1.000,�k��,6.1,��
2016/10/26,18:20,1.162,1.993,1.345,2.223,1.563,0.617,1.090,0.999,�k�k��,6.9,��
2016/10/26,18:30,1.161,1.994,1.345,2.221,1.567,0.618,1.090,1.000,�k�k��,5.8,��
2016/10/26,18:40,1.163,1.993,1.345,2.226,1.563,0.617,1.091,1.001,�k,6.7,��
2016/10/26,18:50,1.162,1.994,1.347,2.221,1.563,0.618,1.093,1.001,�k,6.6,��
2016/10/26,19:00,1.163,1.996,1.346,2.225,1.567,0.619,1.090,1.000,�k,6.1,��
2016/10/26,19:10,1.165,1.993,1.344,2.222,1.568,0.615,1.091,1.000,�k,6.7,��
2016/10/26,19:20,1.163,1.995,1.345,2.227,1.566,0.617,1.092,1.001,�k,6.9,��
2016/10/26,19:30,1.163,1.994,1.347,2.224,1.565,0.615,1.091,1.000,�k,5.0,��
2016/10/26,19:40,1.163,1.997,1.346,2.225,1.563,0.617,1.093,1.000,�k,3.4,��
2016/10/26,19:50,1.162,1.992,1.345,2.225,1.567,0.617,1.091,1.000,�k�k��,2.4,��
2016/10/26,20:00,1.158,1.995,1.347,2.224,1.565,0.616,1.089,1.001,�k��,1.8,��
2016/10/26,20:10,1.160,1.994,1.346,2.224,1.565,0.618,1.088,1.003,�k,1.4,��
2016/10/26,20:20,1.162,1.992,1.345,2.221,1.565,0.615,1.090,1.000,�k�k��,1.4,��
2016/10/26,20:30,1.163,1.995,1.348,2.226,1.564,0.618,1.088,1.001,�k�k��,1.3,��
2016/10/26,20:40,1.161,1.993,1.345,2.221,1.566,0.617,1.087,1.000,�k,2.4,��
2016/10/26,20:50,1.162,1.994,1.346,2.222,1.567,0.617,1.089,1.000,�k,2.3,��
2016/10/26,21:00,1.159,1.994,1.345,2.224,1.565,0.617,1.089,1.001,�k,1.9,��
2016/10/26,21:10,1.160,1.993,1.344,2.225,1.565,0.616,1.089,0.998,�k��,2.5,��
2016/10/26,21:20,1.159,1.995,1.345,2.225,1.565,0.615,1.089,1.002,�k��,2.9,��
2016/10/26,21:30,1.161,1.995,1.342,2.225,1.565,0.616,1.088,1.000,�k��,3.4,��
2016/10/26,21:40,1.162,1.990,1.341,2.221,1.563,0.618,1.090,1.001,�k��,3.2,��
2016/10/26,21:50,1.161,1.993,1.346,2.223,1.566,0.616,1.087,1.000,�k�k��,2.8,��
2016/10/26,22:00,1.161,1.992,1.342,2.221,1.564,0.617,1.088,1.000,�k�k��,2.0,��
2016/10/26,22:10,1.165,1.993,1.343,2.223,1.566,0.616,1.088,0.999,�k��,1.8,��
2016/10/26,22:20,1.161,1.996,1.341,2.224,1.566,0.614,1.090,1.001,�k��,0.7,��
2016/10/26,22:30,1.162,1.995,1.343,2.220,1.563,0.617,1.089,1.001,-,CALM,��
2016/10/26,22:40,1.161,1.993,1.343,2.225,1.565,0.616,1.088,1.001,�k�k��,1.1,��
2016/10/26,22:50,1.160,1.993,1.346,2.222,1.567,0.616,1.090,1.003,�k�k��,1.8,��
2016/10/26,23:00,1.158,1.993,1.342,2.221,1.564,0.617,1.091,1.000,�k��,3.2,��
2016/10/26,23:10,1.159,1.995,1.345,2.225,1.563,0.613,1.091,1.002,�k��,5.0,��
2016/10/26,23:20,1.158,1.992,1.346,2.222,1.566,0.617,1.088,1.001,�k��,6.6,��
2016/10/26,23:30,1.159,1.991,1.344,2.224,1.566,0.616,1.087,1.001,�k��,6.3,��
2016/10/26,23:40,1.162,1.992,1.344,2.223,1.563,0.615,1.089,1.001,�k��,7.7,��
2016/10/26,23:50,1.161,1.991,1.343,2.224,1.562,0.616,1.088,1.000,�k�k��,6.7,��
